[[{"header":{"parameterUnit":"m.s-1","parameterCategory":1,"la1":30.2991,"la2":30.254,"lo1":-89.0895,"lo2":-89.0444,"dy":0.0017,"dx":0.0017,"nx":28,"ny":28,"refTime":"2024-07-06T21:00:00:Z","depth":0,"parameterNumber":2,"parameterNumberName":"U-component_of_WINDS"},"data":[0,0,0,0,0,0,0,0,0,0,0,0,0,0,0,0,0,0,0,0,0,0,0,0,0,0,0,0,0,0,0,0,0,0,0,0,0,0,0,0,0,0,0,0,0,0,0,0,0,0,0,0,0,0,0,0,0,0,0.5516,0.5517,0,0.5575,0.5576,0.5576,0.5555,0.5553,0.5552,0.5551,0.5614,0.5617,0.562,0,0,0,0,0,0,0,0,0,0,0,0,0,0.5388,0.539,0.5516,0.5517,0.5517,0.5575,0.5576,0.5577,0.5555,0.5553,0.5552,0.555,0.5614,0.5617,0.5621,0,0,0,0,0,0,0,0,0,0,0,0,0,0.5445,0.5391,0.5516,0.5513,0.5514,0.5575,0.5576,0.5577,0.5555,0.5553,0.5551,0.5549,0.5612,0.5617,0.5621,0.5689,0,0,0.5635,0.5636,0,0,0,0,0,0,0,0,0.5441,0.5449,0.5513,0.5514,0.5514,0.5555,0.5554,0.5614,0.5556,0.554,0.5551,0.5548,0.5597,0.5602,0.5618,0.5692,0.5694,0.5635,0.5638,0.564,0.5641,0,0,0,0,0,0,0,0.5438,0.5447,0.5539,0.5514,0.5515,0.5511,0.5516,0.5565,0.5579,0.5541,0.5539,0.5547,0.5597,0.5614,0.5619,0.5695,0.5635,0.5639,0.5641,0.5643,0.5828,0.5831,0,0,0,0,0,0,0.5433,0.5444,0.5537,0.5541,0.5472,0.5514,0.5521,0.5544,0.5578,0.5581,0.5548,0.5545,0.5607,0.5614,0.5621,0.5703,0.5639,0.5644,0.5646,0.5826,0.5829,0.5831,0,0,0,0,0,0,0.543,0.5441,0.5535,0.5492,0.5504,0.5519,0.5545,0.5547,0.5563,0.5584,0.5586,0.5563,0.5606,0.5615,0.5672,0.5705,0.5646,0.565,0.5824,0.5827,0.583,0.5867,0,0,0,0,0,0,0.5427,0.5441,0.5466,0.5493,0.5506,0.5584,0.5547,0.5549,0.5571,0.5568,0.5598,0.5601,0.5605,0.5666,0.5676,0.571,0.5653,0.5821,0.5825,0.5829,0.5863,0.5872,0.5879,0,0,0,0,0,0.5422,0.5474,0.5467,0.5479,0.5537,0.5586,0.5594,0.5596,0.5573,0.5599,0.5613,0.56,0.57,0.5672,0.5684,0.5719,0.5819,0.5824,0.5829,0.586,0.587,0.5878,0,0,0,0,0,0,0.5452,0.5478,0.547,0.5532,0.5557,0.5582,0.5615,0.5606,0.5638,0.5634,0.5636,0.5643,0.5702,0.5716,0.5685,0.5787,0.5756,0.5764,0.5775,0.5785,0.5793,0.5788,0.5657,0,0,0,0,0,0.5466,0.5502,0.5523,0.5576,0.5588,0.56,0.5621,0.562,0.5646,0.5657,0.5674,0.57,0.5738,0.5762,0.5797,0.5865,0.5872,0.5896,0.5903,0.5909,0.5916,0.5954,0.5965,0.5848,0.5848,0.5848,0,0,0.5495,0.5513,0.5536,0.5582,0.5601,0.564,0.5608,0.565,0.5679,0.5663,0.5718,0.5732,0.5761,0.5824,0.5853,0.5838,0.595,0.5916,0.5921,0.5924,0.596,0.5971,0.5981,0.5852,0.5851,0.585,0,0,0.5567,0.5584,0.563,0.565,0.5679,0.5686,0.5697,0.5723,0.5732,0.5786,0.5775,0.581,0.5874,0.5896,0.5915,0.5996,0.5987,0.6008,0.6048,0.6085,0.6094,0.6102,0.6132,0.6142,0.6014,0.6015,0.6015,0,0.5599,0.5656,0.5656,0.5698,0.5719,0.5706,0.5753,0.5773,0.5812,0.5827,0.581,0.589,0.5909,0.5977,0.5997,0.6013,0.6026,0.6004,0.6093,0.6101,0.6109,0.6137,0.6148,0.6017,0.6017,0.6016,0.6016,0,0.5695,0.5734,0.5768,0.5805,0.583,0.5875,0.5883,0.5908,0.5906,0.5915,0.5971,0.5994,0.6034,0.605,0.6048,0.6118,0.6108,0.6092,0.6061,0.6122,0.6149,0.6159,0.602,0.602,0.6019,0.6018,0,0,0.5788,0.5824,0.5837,0.5853,0.5884,0.5915,0.596,0.5998,0.602,0.6048,0.6086,0.6141,0.6126,0.6148,0.6149,0.6181,0.6244,0.6161,0.6161,0.6176,0.6324,0.6336,0.6348,0.6238,0.624,0.6241,0.6321,0,0.5863,0.594,0.5941,0.6013,0.605,0.6037,0.6077,0.61,0.611,0.6144,0.6155,0.6194,0.6171,0.6185,0.6216,0.623,0.6274,0.6224,0.6275,0.6276,0.6268,0.6362,0.6375,0.6449,0.6332,0.6333,0.6335,0,0.5961,0.599,0.6065,0.6091,0.6107,0.6142,0.6177,0.6209,0.6236,0.6241,0.6266,0.6262,0.6309,0.6276,0.6341,0.6307,0.6328,0.6338,0.6341,0.6346,0.631,0.637,0.6473,0.6484,0.6351,0.635,0.6348,0,0.6021,0.608,0.6133,0.6148,0.6179,0.6204,0.6218,0.6243,0.6266,0.6298,0.6313,0.6349,0.637,0.6399,0.6405,0.638,0.6471,0.6438,0.6477,0.6477,0.6497,0.6496,0.6605,0.651,0.651,0.651,0.6509,0,0.6105,0.6152,0.6161,0.6193,0.6245,0.6247,0.6299,0.6311,0.6334,0.6369,0.6361,0.6395,0.6401,0.6437,0.6442,0.6496,0.6505,0.6512,0.6513,0.6513,0.6512,0.6527,0.6522,0.6513,0.6512,0.6511,0.6511,0,0.6182,0.619,0.6246,0.6271,0.6279,0.6316,0.6338,0.6369,0.6378,0.6423,0.6434,0.6449,0.649,0.6499,0.6549,0.6553,0.6617,0.6612,0.6607,0.6607,0.6646,0.6642,0.6769,0.6786,0.6679,0.668,0.6681,0,0.6236,0.6271,0.6299,0.6322,0.6337,0.6374,0.6397,0.64,0.6425,0.6459,0.6487,0.6527,0.6559,0.6626,0.6642,0.668,0.6677,0.6719,0.6683,0.6682,0.6679,0.6677,0.6681,0.6726,0.6727,0.6728,0.6729,0,0.633,0.6332,0.6365,0.6399,0.6427,0.6454,0.6481,0.65,0.6507,0.6536,0.6577,0.6602,0.6652,0.6693,0.6731,0.6747,0.674,0.674,0.6751,0.6752,0.6748,0.6751,0.6627,0.6737,0.6736,0.6736,0.6735,0.6735,0.6397,0.6428,0.6453,0.649,0.651,0.6535,0.6566,0.6578,0.6613,0.6653,0.6653,0.6699,0.6726,0.6776,0.6795,0.6832,0.6819,0.6835,0.6839,0.6843,0.6847,0.6741,0.6839,0.6838,0.6838,0.6838,0.6838,0,0.6491,0.6506,0.654,0.6577,0.6607,0.6596,0.6624,0.665,0.669,0.6716,0.6748,0.6796,0.6835,0.6854,0.6894,0.692,0.6917,0.693,0.6928,0.6932,0.6856,0.6843,0.6931,0.6931,0.6931,0.6931,0.6931,0.6931,0.6544,0.6595,0.6601,0.6663,0.6678,0.6722,0.6739,0.6763,0.6783,0.6837,0.6869,0.6881,0.6904,0.6945,0.6981,0.6986,0.7001,0.7016,0.7019,0.6947,0.6938,0.6929,0.6916,0.7019,0.7019,0.7092,0.7093,0.7094]},{"header":{"parameterUnit":"m.s-1","parameterCategory":1,"la1":30.2991,"la2":30.254,"lo1":-89.0895,"lo2":-89.0444,"dy":0.0017,"dx":0.0017,"nx":28,"ny":28,"refTime":"2024-07-06T21:00:00:Z","depth":0,"parameterNumber":3,"parameterNumberName":"V-component_of_WINDS"},"data":[0,0,0,0,0,0,0,0,0,0,0,0,0,0,0,0,0,0,0,0,0,0,0,0,0,0,0,0,0,0,0,0,0,0,0,0,0,0,0,0,0,0,0,0,0,0,0,0,0,0,0,0,0,0,0,0,0,0,0.9173,0.9174,0,0.9251,0.9252,0.9253,0.9226,0.9225,0.9223,0.9221,0.9302,0.9305,0.9309,0,0,0,0,0,0,0,0,0,0,0,0,0,0.9002,0.9005,0.9173,0.9174,0.9175,0.9251,0.9252,0.9253,0.9227,0.9225,0.9222,0.922,0.93,0.9305,0.9309,0,0,0,0,0,0,0,0,0,0,0,0,0,0.9078,0.9006,0.9173,0.9171,0.9172,0.9251,0.9252,0.9254,0.9227,0.9224,0.9222,0.922,0.9299,0.9304,0.931,0.9396,0,0,0.9327,0.9329,0,0,0,0,0,0,0,0,0.9074,0.9084,0.917,0.9171,0.9172,0.9226,0.9221,0.9301,0.9228,0.9206,0.9221,0.9218,0.9279,0.9286,0.9306,0.94,0.9403,0.9328,0.9331,0.9333,0.9335,0,0,0,0,0,0,0,0.9068,0.9081,0.9204,0.9172,0.9173,0.9167,0.9174,0.9236,0.9256,0.9208,0.9206,0.9216,0.9279,0.9301,0.9308,0.9404,0.9327,0.9332,0.9336,0.9338,0.9574,0.9577,0,0,0,0,0,0,0.9063,0.9076,0.9202,0.9207,0.9115,0.9172,0.9181,0.9212,0.9255,0.9259,0.9218,0.9214,0.9292,0.9301,0.9311,0.9416,0.9333,0.9339,0.9342,0.9571,0.9575,0.9578,0,0,0,0,0,0,0.9059,0.9074,0.9199,0.9141,0.9156,0.9177,0.9213,0.9215,0.9237,0.9263,0.9266,0.9237,0.9291,0.9303,0.9375,0.9418,0.9341,0.9346,0.9568,0.9572,0.9576,0.9626,0,0,0,0,0,0,0.9054,0.9073,0.9106,0.9142,0.916,0.9262,0.9215,0.9218,0.9246,0.9242,0.9281,0.9285,0.929,0.9367,0.9381,0.9424,0.9351,0.9564,0.957,0.9575,0.9621,0.9632,0.9641,0,0,0,0,0,0.9048,0.9116,0.9107,0.9123,0.9201,0.9265,0.9275,0.9278,0.925,0.9283,0.93,0.9284,0.9411,0.9375,0.939,0.9436,0.9562,0.9568,0.9575,0.9616,0.9629,0.9641,0,0,0,0,0,0,0.9084,0.9121,0.9112,0.9194,0.9226,0.926,0.9302,0.9292,0.9333,0.9328,0.933,0.9339,0.9414,0.9432,0.9391,0.9522,0.9482,0.9492,0.9508,0.9521,0.9531,0.9526,0.9355,0,0,0,0,0,0.9102,0.915,0.9179,0.9249,0.9266,0.9281,0.9309,0.9309,0.9343,0.9357,0.9379,0.9412,0.946,0.9491,0.9536,0.9622,0.9631,0.9662,0.9672,0.968,0.9689,0.9737,0.9752,0.96,0.9599,0.9599,0,0,0.9139,0.9165,0.9195,0.9257,0.9282,0.9333,0.9293,0.9348,0.9386,0.9365,0.9436,0.9453,0.949,0.9571,0.9607,0.9588,0.9733,0.9688,0.9694,0.9699,0.9746,0.976,0.9773,0.9604,0.9603,0.9602,0,0,0.9232,0.9256,0.9317,0.9343,0.9382,0.9392,0.9407,0.9442,0.9453,0.9524,0.951,0.9554,0.9636,0.9664,0.9688,0.9793,0.978,0.9807,0.986,0.9908,0.992,0.993,0.9969,0.9983,0.9816,0.9816,0.9816,0,0.9273,0.9349,0.935,0.9407,0.9435,0.9418,0.948,0.9506,0.9557,0.9577,0.9555,0.9657,0.9681,0.9769,0.9794,0.9814,0.9832,0.9803,0.9918,0.9928,0.9938,0.9975,0.999,0.9819,0.9819,0.9818,0.9818,0,0.9398,0.945,0.9495,0.9546,0.9579,0.9638,0.9649,0.9682,0.9679,0.9691,0.9764,0.9792,0.9843,0.9864,0.9861,0.9951,0.9938,0.9916,0.9876,0.9956,0.9991,1.0005,0.9824,0.9822,0.9821,0.9821,0,0,0.9517,0.9568,0.9584,0.9608,0.9649,0.969,0.9749,0.9799,0.9828,0.9864,0.9914,0.9983,0.9964,0.9992,0.9992,1.0033,1.0116,1.0007,1.0008,1.0028,1.0219,1.0237,1.0253,1.0107,1.011,1.0112,1.0217,0,0.9615,0.9718,0.9721,0.9816,0.9865,0.985,0.9901,0.9933,0.9946,0.999,1.0004,1.0054,1.0023,1.0041,1.0081,1.0098,1.0155,1.009,1.0155,1.0157,1.0148,1.0271,1.0289,1.0387,1.023,1.0232,1.0234,0,0.9743,0.9784,0.9884,0.9919,0.994,0.9986,1.0033,1.0074,1.011,1.0117,1.0148,1.0143,1.0203,1.016,1.0244,1.02,1.0226,1.0239,1.0242,1.025,1.0202,1.0284,1.0417,1.0433,1.0255,1.0254,1.0252,0,0.9823,0.9902,0.9972,0.9992,1.0035,1.0068,1.0087,1.012,1.015,1.0191,1.0211,1.0258,1.0284,1.0321,1.0328,1.0295,1.0413,1.037,1.0421,1.0421,1.0448,1.0447,1.059,1.0462,1.0462,1.0461,1.0461,0,0.9933,0.9995,1.0009,1.0052,1.0121,1.0124,1.0193,1.021,1.0239,1.0286,1.0275,1.0319,1.0325,1.0371,1.0377,1.0447,1.0458,1.0466,1.0467,1.0468,1.0467,1.0487,1.0481,1.0465,1.0464,1.0464,1.0463,0,1.0034,1.0045,1.0121,1.0155,1.0166,1.0215,1.0245,1.0287,1.0298,1.0358,1.0372,1.0391,1.0444,1.0455,1.0518,1.0522,1.0605,1.0599,1.0594,1.0594,1.0645,1.0641,1.0808,1.083,1.0686,1.0687,1.0688,0,1.0104,1.0152,1.0191,1.0222,1.0243,1.0292,1.0323,1.0328,1.0361,1.0405,1.0442,1.0494,1.0536,1.0623,1.0642,1.0691,1.0686,1.0741,1.0694,1.0694,1.0689,1.0687,1.0693,1.0751,1.0753,1.0754,1.0755,0,1.0229,1.0232,1.0277,1.0325,1.0362,1.0399,1.0435,1.0461,1.047,1.0507,1.0562,1.0595,1.066,1.0713,1.0761,1.0781,1.0771,1.0769,1.0784,1.0787,1.0783,1.0788,1.0621,1.0766,1.0765,1.0764,1.0764,1.0763,1.0318,1.036,1.0395,1.0445,1.0473,1.0506,1.0548,1.0565,1.0611,1.0664,1.0664,1.0724,1.0759,1.0823,1.0846,1.0894,1.0876,1.0897,1.0903,1.0909,1.0915,1.0774,1.0902,1.0902,1.0902,1.0901,1.0901,0,1.0443,1.0465,1.0512,1.0562,1.0602,1.0588,1.0627,1.0661,1.0715,1.0748,1.079,1.0854,1.0905,1.0928,1.0979,1.1012,1.1009,1.1026,1.1024,1.1029,1.0926,1.0909,1.1028,1.1028,1.1028,1.1028,1.1028,1.1028,1.0514,1.0585,1.0592,1.0677,1.0698,1.0757,1.0781,1.0812,1.0839,1.0911,1.0953,1.0968,1.0998,1.105,1.1097,1.1102,1.1122,1.1142,1.1145,1.1049,1.1036,1.1024,1.1008,1.1146,1.1146,1.1245,1.1246,1.1246]}]]